Location: Rancho Penasquitos
(32.9595°N, 117.1153°W)
Time: 02:14:01
(UTC+00:00)

Envisat - Pass Details

Date: 29 June 2022
Orbit: 763 x 765 km, 98.2° (Epoch: 07 August)

Event Time Altitude Azimuth Distance (km) Brightness Sun altitude
Rises 12:03:50 0° 15° (NNE) 3,234 7.1 -7.8°
Reaches altitude 10° 12:06:10 10° 18° (NNE) 2,304 6.4 -7.4°
Maximum altitude 12:11:12 67° 101° (E) 827 3.4 -6.5°
Drops below altitude 10° 12:16:13 10° 184° (S) 2,289 5.1 -5.7°
Sets 12:18:32 0° 187° (S) 3,211 5.8 -5.2°
